sat.trackr.live / text

‹ back to catalog

KUIPER-00172

NORAD 65785 · 2025-217Z

PAYLOAD ACTIVE UNKNOWN

§ Identity

Operator
Country
US
Launch date
2025-09-25
Launch site
AFETR
Launch vehicle
Mass (kg)
RCS (m²)

External: N2YO · Heavens-Above · Gunter

§ Orbital elements

Epoch: 2026-05-25T00:07:52.667616Z

Period
97.52 min
Inclination
51.8985°
Eccentricity
0.0000995
Mean motion
14.76654388 rev/d
Perigee alt
639.2 km
Apogee alt
640.6 km
Semi-major
7,018.0 km
B*
2.8369e-4
RAAN
43.0278°
Arg perigee
174.4515°
Mean anomaly
185.6457°
Rev number
3,649

§ Raw data

KUIPER-001721 65785U 25217Z   26145.00547069  .00001787  00000+0  28369-3 0  99902 65785  51.8985  43.0278 0000995 174.4515 185.6457 14.76654388 36493

JSON: /api/v1/satellites/65785 · /tle

For live sub-satellite position, see the globe view (requires WebGL).

§ Visibility from observer

Set your observer location to see the next 7 days of passes ≥ 10°. The values pass through the URL so the page stays shareable.

No JS? Fill the form by hand. The geolocation button needs JavaScript.